Location: Davidschlag
(48.4333°N, 14.2833°E)
Time: 09:45:01
(UTC+00:00)

STARLINK-1039 - Pass Details

Date: 27 February 2020
Orbit: 549 x 550 km, 53.0° (Epoch: 04 April)

Event Time Altitude Azimuth Distance (km) Brightness Sun altitude
Rises 18:29:11 0° 244° (WSW) 2,711 8.1 -18.4°
Reaches altitude 10° 18:31:24 10° 245° (WSW) 1,820 7.1 -18.8°
Maximum altitude 18:35:33 86° 334° (NNW) 557 3.5 -19.4°
Enters shadow 18:36:42 47° 60° (ENE) 736 3.9 -19.6°
